Location: Alafon
(8.4500°N, 4.2333°E)
Time: 16:54:28
(UTC+00:00)

A-11 Canister half - Pass Details

Date: 07 August 2021
Orbit: 1515 x 1685 km, 47.2° (Epoch: 19 September)

Event Time Altitude Azimuth Distance (km) Brightness Sun altitude
Rises 01:28:15 0° 288° (WNW) 4,927 - -55.1°
Reaches altitude 10° 01:32:48 10° 271° (W) 3,926 - -54.3°
Maximum altitude 01:39:04 18° 232° (SW) 3,270 - -53.1°
Drops below altitude 10° 01:45:19 10° 192° (SSW) 3,859 - -52.0°
Sets 01:49:48 0° 174° (S) 4,814 - -51.1°
